Location: Slidell
(30.2789°N, 89.7378°W)
Time: 16:49:03
(UTC-06:00)

Daily predictions for brighter satellites

Satellite Brightness Start Highest point End
(mag) Time Altitude Azimuth Time Altitude Azimuth Time Altitude Azimuth
Cosmos 1092 Rocket 4.3 17:15:50 10° N 17:22:04 78° W 17:28:21 10° S
Cosmos 1680 Rocket 4.1 17:21:58 10° NNW 17:27:11 64° WSW 17:32:24 10° S
SJ-7 4.3 17:23:10 10° SSE 17:27:11 75° ENE 17:31:11 10° N
Cosmos 1484 Rocket 2.8 17:26:30 10° SSE 17:30:27 77° E 17:34:28 10° N
Abrixas rocket 4.2 17:28:36 10° W 17:31:08 20° NNW 17:33:38 10° NNE
AQUARIUS 4.1 17:28:37 10° SSE 17:33:04 71° ENE 17:37:32 10° N
Cosmos 2227 Rocket 3.8 17:30:53 10° NNE 17:33:26 13° ENE 17:35:58 10° E
Cosmos 2219 3.7 17:28:23 10° N 17:33:34 37° ENE 17:38:43 10° SE
Landsat 4 4.0 17:30:10 10° NNE 17:33:52 48° E 17:37:33 10° S
Cosmos 1271 Rocket 3.8 17:32:24 10° NNE 17:35:30 23° ENE 17:38:37 10° SE
ATLAS 3B R/B 4.0 17:33:11 10° N 17:37:08 16° NE 17:41:02 10° E
USA 215 3.3 17:31:15 10° SE 17:37:48 88° SW 17:44:22 10° NW
ASTRO E2 3.3 17:35:14 10° W 17:39:10 56° SSW 17:43:06 10° ESE
Cosmos 1500 3.7 17:36:20 10° NNW 17:40:03 61° W 17:43:45 10° S
Cosmos 2026 Rocket 4.1 17:35:18 10° N 17:41:42 90° NE 17:48:00 10° S
Meteor 1-13 Rocket 4.3 17:37:44 10° S 17:43:05 53° E 17:48:32 10° NNE
SKYMED 2 3.7 17:42:18 10° NNE 17:46:34 56° E 17:50:49 10° S
Cosmos 389 Rocket 2.7 17:45:05 10° N 17:48:27 45° E 17:51:45 10° SSE
MTI 3.7 17:46:27 10° NNE 17:49:41 70° ESE 17:52:54 10° S
Ariane Rocket 3.4 17:45:50 10° S 17:50:52 69° WSW 17:55:55 10° NNW
CORIOLIS 4.2 17:46:10 10° SSE 17:51:35 87° WSW 17:57:02 10° NNW
ERS-2 2.8 17:52:29 10° SE 17:55:46 32° ENE 17:59:04 10° N
Cosmos 1125 Rocket 3.8 17:54:04 10° S 17:59:06 45° ESE 18:03:51 11° NNE
Meteor 2-4 Rocket 3.7 17:53:56 10° S 17:59:22 57° E 18:04:40 10° NNE
DELTA 2 R/B (1) 4.3 17:55:49 10° W 18:01:04 41° NNW 18:04:55 17° NE
Cosmos 2297 Rocket 3.4 17:57:15 10° NNE 18:01:14 19° ENE 18:02:11 19° ENE
PSLV R/B 3.7 18:01:53 10° WSW 18:04:56 47° NNW 18:06:23 25° NE
Cosmos 1932 4.4 17:59:38 10° NNW 18:05:54 60° ENE 18:12:00 10° SE
Cosmos 1666 2.5 18:09:03 10° N 18:12:48 86° E 18:16:32 10° S
MONITOR-E 3.9 18:12:33 10° SSE 18:15:33 70° E 18:18:36 10° N
YAOGAN 1 2.9 18:11:47 10° S 18:16:04 68° W 18:20:23 10° NNW
Hubble Space Telescope 0.9 18:12:15 10° W 18:16:22 67° S 18:18:16 30° ESE
Cosmos 1455 Rocket 3.0 18:12:20 10° N 18:16:47 87° E 18:21:09 10° S
NOSS 8 (A) 4.4 18:14:08 10° SSW 18:17:44 80° WNW 18:19:11 31° NNE
MOS 1 4.2 18:13:13 10° SSE 18:18:53 77° ENE 18:24:33 10° N
Cosmos 1544 Rocket 3.6 18:15:58 10° N 18:20:20 77° W 18:24:38 10° S
Lacrosse 5 4.4 18:17:08 10° WNW 18:21:04 23° WSW 18:25:01 10° S
Cosmos 2369 3.6 18:15:27 10° SSW 18:21:05 79° ESE 18:25:45 16° NNE
Cosmos 2278 3.6 18:18:03 10° SSW 18:23:42 78° ESE 18:28:08 17° NNE
Cosmos 1656 3.6 18:22:14 10° SSW 18:27:50 77° ESE 18:31:37 21° NNE
Cosmos 1607 4.4 18:21:59 10° NNW 18:28:24 67° WSW 18:34:41 10° SSE
USA 238 DEB 4.1 18:26:02 10° NNW 18:32:45 42° NE 18:36:06 27° ESE
USA 238 4.1 18:26:09 10° NNW 18:32:51 42° NE 18:36:03 28° ESE
COSMO-SKYMED 1 4.1 18:30:35 10° N 18:34:31 35° WNW 18:38:27 10° SW
Delta 2 Rocket 4.2 18:30:10 10° WNW 18:35:17 45° N 18:36:19 39° NE
Cosmos 372 Rocket 4.1 18:33:57 10° SSW 18:39:10 72° WNW 18:42:58 19° N
FengYun 1-2 T 4.4 18:34:17 10° SE 18:39:34 45° ENE 18:44:53 10° N
IUS-13 SRM-1 4.4 18:39:52 10° SW 18:42:07 22° S 18:46:14 12° SE
GOES 2 Rocket 3.6 18:38:02 10° WSW 18:42:51 71° S 18:44:37 44° ESE
Atlas Centaur 2 1.1 18:43:07 10° W 18:47:40 90° N 18:47:40 90° N
SPOT 3 Rocket 3.9 18:44:29 10° S 18:49:38 65° WSW 18:54:47 10° NNW
Cosmos 1241 Rocket 4.4 18:43:56 10° SSW 18:50:20 77° ESE 18:52:37 42° NE
SJ 16-02 2.2 18:46:49 10° SSW 18:51:02 47° WNW 18:53:19 24° N
Cosmos 468 4.3 18:46:15 10° NNW 18:51:35 78° ENE 18:56:51 10° SSE
Cosmos 1515 4.0 18:49:01 10° S 18:52:14 62° SSW 18:52:14 62° SSW
Cosmos 1697 Rocket 2.5 18:48:32 10° SSW 18:54:11 85° ESE 18:55:52 48° NNE
FENGYUN 3A 4.1 18:49:37 10° S 18:54:56 61° W 19:00:16 10° NNW
Nadezhda 2 Rocket 4.4 18:50:14 10° N 18:56:31 66° E 19:02:50 10° SSE
ALOS 3.3 18:54:55 10° S 18:59:22 45° W 19:03:51 10° NNW
Cosmos 2082 4.1 18:56:38 10° NNW 19:00:45 47° N 19:00:45 47° N
Meteor 2-11 Rocket 4.4 18:57:52 10° S 19:04:02 81° W 19:08:09 22° N
NOSS 3-2 (A) 4.5 18:57:50 10° NNW 19:03:56 40° NE 19:03:56 40° NE
Okean 2 4.3 19:06:34 10° SSW 19:09:46 45° SW 19:09:46 45° SW
Thor Agena Rocket 3.8 19:10:15 48° NNW 19:11:35 67° WNW 19:16:48 10° SSW
Cosmos 2227 Rocket 2.4 19:12:20 10° NNW 19:17:58 70° WSW 19:21:20 25° S
Cosmos 1025 Rocket 4.3 19:18:37 10° SSW 19:22:12 38° W 19:22:12 38° W
ATLAS 3B R/B 2.5 19:21:56 10° NNW 19:28:31 80° WSW 19:28:37 80° SW
Skynet4D Del rocket 4.3 19:24:16 10° WSW 19:28:33 47° SW 19:28:33 47° SW
NOSS 3-4 (A) 3.9 19:24:54 10° SW 19:30:57 55° WNW 19:31:38 52° NW
NOSS 3-4 (C) 3.9 19:25:00 10° SW 19:31:02 55° WNW 19:31:40 53° NW
Cosmos 1980 Rocket 2.8 19:27:12 10° SSW 19:31:17 49° SW 19:31:17 49° SW
Cosmos 2297 Rocket 3.3 19:40:05 10° NNW 19:44:14 39° WNW 19:44:14 39° WNW
Hubble Space Telescope 4.0 19:53:25 10° W 19:53:38 11° W 19:53:38 11° W
